TimeCST,TemperatureF,Dew PointF,Humidity,Sea Level PressureIn,VisibilityMPH,Wind Direction,Wind SpeedMPH,Gust SpeedMPH,PrecipitationIn,Events,Conditions,WindDirDegrees,DateUTC
12:53 AM,21.0,16.0,81,30.37,10.0,Calm,Calm,-,N/A,,Clear,0,2013-01-07 06:53:00
1:53 AM,23.0,17.1,78,30.38,10.0,South,6.9,-,N/A,,Clear,180,2013-01-07 07:53:00
2:53 AM,24.1,17.1,75,30.37,10.0,SSE,6.9,-,N/A,,Clear,160,2013-01-07 08:53:00
3:53 AM,23.0,16.0,74,30.36,10.0,South,8.1,-,N/A,,Clear,170,2013-01-07 09:53:00
4:53 AM,21.9,16.0,78,30.35,10.0,SSE,9.2,-,N/A,,Clear,150,2013-01-07 10:53:00
5:53 AM,21.9,16.0,78,30.34,10.0,SSE,6.9,-,N/A,,Clear,160,2013-01-07 11:53:00
6:53 AM,23.0,17.1,78,30.35,10.0,South,9.2,-,N/A,,Clear,170,2013-01-07 12:53:00
7:53 AM,27.0,19.0,72,30.35,10.0,SSE,13.8,-,N/A,,Clear,150,2013-01-07 13:53:00
8:53 AM,30.0,21.9,72,30.35,10.0,South,16.1,-,N/A,,Clear,180,2013-01-07 14:53:00
9:53 AM,34.0,24.1,67,30.35,10.0,South,12.7,-,N/A,,Clear,180,2013-01-07 15:53:00
10:53 AM,39.0,24.1,55,30.34,10.0,South,10.4,-,N/A,,Clear,180,2013-01-07 16:53:00
11:53 AM,42.1,25.0,51,30.28,10.0,South,12.7,-,N/A,,Clear,170,2013-01-07 17:53:00
12:53 PM,44.6,26.6,49,30.20,10.0,South,13.8,-,N/A,,Clear,180,2013-01-07 18:53:00
1:53 PM,48.0,26.1,42,30.21,10.0,SSW,8.1,-,N/A,,Clear,200,2013-01-07 19:53:00
2:53 PM,48.0,25.0,41,30.20,10.0,SW,9.2,-,N/A,,Clear,220,2013-01-07 20:53:00
3:53 PM,44.1,26.1,49,30.19,10.0,SSE,6.9,-,N/A,,Clear,160,2013-01-07 21:53:00
4:53 PM,41.0,24.8,53,30.16,10.0,SSE,6.9,-,N/A,,Clear,160,2013-01-07 22:53:00
5:53 PM,39.0,24.1,55,30.18,10.0,SSE,8.1,-,N/A,,Clear,160,2013-01-07 23:53:00
6:53 PM,37.0,24.1,59,30.18,10.0,South,8.1,-,N/A,,Clear,170,2013-01-08 00:53:00
7:53 PM,36.0,23.0,59,30.17,10.0,South,9.2,-,N/A,,Clear,180,2013-01-08 01:53:00
8:53 PM,36.0,23.0,59,30.17,10.0,South,11.5,-,N/A,,Clear,180,2013-01-08 02:53:00
9:53 PM,36.0,21.9,57,30.16,10.0,South,11.5,-,N/A,,Clear,180,2013-01-08 03:53:00
10:53 PM,35.1,21.9,59,30.14,10.0,South,15.0,-,N/A,,Clear,180,2013-01-08 04:53:00
11:53 PM,35.1,23.0,61,30.12,10.0,South,13.8,-,N/A,,Clear,180,2013-01-08 05:53:00